Year,Month,Day,Hour,Minute,Value (Times are PST for temperature in C)
2007,08,23,00,00,15.60
2007,08,23,00,01,15.60
2007,08,23,00,02,15.60
2007,08,23,00,03,15.60
2007,08,23,00,04,15.60
2007,08,23,00,05,15.60
2007,08,23,00,06,15.60
2007,08,23,00,07,15.70
2007,08,23,00,08,15.70
2007,08,23,00,09,15.70
2007,08,23,00,10,15.70
2007,08,23,00,11,15.70
2007,08,23,00,12,15.70
2007,08,23,00,13,15.70
2007,08,23,00,14,15.70
2007,08,23,00,15,15.60
2007,08,23,00,16,15.60
2007,08,23,00,17,15.60
2007,08,23,00,18,15.60
2007,08,23,00,19,15.60
2007,08,23,00,20,15.60
2007,08,23,00,21,15.60
2007,08,23,00,22,15.60
2007,08,23,00,23,15.60
2007,08,23,00,24,15.60
2007,08,23,00,25,15.60
2007,08,23,00,26,15.60
2007,08,23,00,27,15.60
2007,08,23,00,28,15.60
2007,08,23,00,29,15.60
2007,08,23,00,30,15.60
2007,08,23,00,31,15.60
2007,08,23,00,32,15.60
2007,08,23,00,33,15.50
2007,08,23,00,34,15.50
2007,08,23,00,35,15.50
2007,08,23,00,36,15.40
2007,08,23,00,37,15.40
2007,08,23,00,38,15.40
2007,08,23,00,39,15.40
2007,08,23,00,40,15.40
2007,08,23,00,41,15.30
2007,08,23,00,42,15.30
2007,08,23,00,43,15.30
2007,08,23,00,44,15.30
2007,08,23,00,45,15.30
2007,08,23,00,46,15.20
2007,08,23,00,47,15.20
2007,08,23,00,48,15.20
2007,08,23,00,49,15.20
2007,08,23,00,50,15.10
2007,08,23,00,51,15.00
2007,08,23,00,52,15.00
2007,08,23,00,53,15.00
2007,08,23,00,54,15.00
2007,08,23,00,55,15.00
2007,08,23,00,56,15.00
2007,08,23,00,57,15.00
2007,08,23,00,58,15.00
2007,08,23,00,59,15.00
2007,08,23,01,00,15.00
2007,08,23,01,01,15.00
2007,08,23,01,02,15.00
2007,08,23,01,03,15.00
2007,08,23,01,04,15.00
2007,08,23,01,05,15.00
2007,08,23,01,06,15.00
2007,08,23,01,07,15.00
2007,08,23,01,08,15.00
2007,08,23,01,09,15.00
2007,08,23,01,10,15.00
2007,08,23,01,11,14.90
2007,08,23,01,12,14.90
2007,08,23,01,13,14.90
2007,08,23,01,14,14.90
2007,08,23,01,15,14.90
2007,08,23,01,16,14.90
2007,08,23,01,17,14.90
2007,08,23,01,18,14.90
2007,08,23,01,19,14.80
2007,08,23,01,20,14.80
2007,08,23,01,21,14.80
2007,08,23,01,22,14.80
2007,08,23,01,23,14.80
2007,08,23,01,24,14.80
2007,08,23,01,25,14.80
2007,08,23,01,26,14.80
2007,08,23,01,27,14.80
2007,08,23,01,28,14.80
2007,08,23,01,29,14.70
2007,08,23,01,30,14.70
2007,08,23,01,31,14.70
2007,08,23,01,32,14.60
2007,08,23,01,33,14.60
2007,08,23,01,34,14.60
2007,08,23,01,35,14.60
2007,08,23,01,36,14.60
2007,08,23,01,37,14.60
2007,08,23,01,38,14.60
2007,08,23,01,39,14.60
2007,08,23,01,40,14.50
2007,08,23,01,41,14.50
2007,08,23,01,42,14.50
2007,08,23,01,43,14.50
2007,08,23,01,44,14.50
2007,08,23,01,45,14.50
2007,08,23,01,46,14.50
2007,08,23,01,47,14.50
2007,08,23,01,48,14.50
2007,08,23,01,49,14.50
2007,08,23,01,50,14.50
2007,08,23,01,51,14.50
2007,08,23,01,52,14.50
2007,08,23,01,53,14.50
2007,08,23,01,54,14.40
2007,08,23,01,55,14.40
2007,08,23,01,56,14.40
2007,08,23,01,57,14.40
2007,08,23,01,58,14.40
2007,08,23,01,59,14.40
2007,08,23,02,00,14.40
2007,08,23,02,01,14.40
2007,08,23,02,02,14.40
2007,08,23,02,03,14.40
2007,08,23,02,04,14.40
2007,08,23,02,05,14.40
2007,08,23,02,06,14.40
2007,08,23,02,07,14.40
2007,08,23,02,08,14.40
2007,08,23,02,09,14.40
2007,08,23,02,10,14.40
2007,08,23,02,11,14.40
2007,08,23,02,12,14.40
2007,08,23,02,13,14.30
2007,08,23,02,14,14.30
2007,08,23,02,15,14.30
2007,08,23,02,16,14.30
2007,08,23,02,17,14.30
2007,08,23,02,18,14.30
2007,08,23,02,19,14.30
2007,08,23,02,20,14.30
2007,08,23,02,21,14.30
2007,08,23,02,22,14.20
2007,08,23,02,23,14.20
2007,08,23,02,24,14.20
2007,08,23,02,25,14.20
2007,08,23,02,26,14.20
2007,08,23,02,27,14.20
2007,08,23,02,28,14.30
2007,08,23,02,29,14.30
2007,08,23,02,30,14.30
2007,08,23,02,31,14.20
2007,08,23,02,32,14.20
2007,08,23,02,33,14.20
2007,08,23,02,34,14.20
2007,08,23,02,35,14.20
2007,08,23,02,36,14.20
2007,08,23,02,37,14.20
2007,08,23,02,38,14.20
2007,08,23,02,39,14.20
2007,08,23,02,40,14.20
2007,08,23,02,41,14.20
2007,08,23,02,42,14.10
2007,08,23,02,43,14.10
2007,08,23,02,44,14.10
2007,08,23,02,45,14.10
2007,08,23,02,46,14.00
2007,08,23,02,47,14.00
2007,08,23,02,48,14.00
2007,08,23,02,49,14.00
2007,08,23,02,50,14.00
2007,08,23,02,51,14.00
2007,08,23,02,52,13.90
2007,08,23,02,53,13.90
2007,08,23,02,54,13.90
2007,08,23,02,55,13.90
2007,08,23,02,56,13.90
2007,08,23,02,57,13.90
2007,08,23,02,58,13.90
2007,08,23,02,59,13.90
2007,08,23,03,00,13.90
2007,08,23,03,01,13.80
2007,08,23,03,02,13.80
2007,08,23,03,03,13.80
2007,08,23,03,04,13.80
2007,08,23,03,05,13.80
2007,08,23,03,06,13.90
2007,08,23,03,07,13.90
2007,08,23,03,08,13.90
2007,08,23,03,09,13.80
2007,08,23,03,10,13.80
2007,08,23,03,11,13.80
2007,08,23,03,12,13.80
2007,08,23,03,13,13.80
2007,08,23,03,14,13.80
2007,08,23,03,15,13.80
2007,08,23,03,16,13.80
2007,08,23,03,17,13.70
2007,08,23,03,18,13.70
2007,08,23,03,19,13.70
2007,08,23,03,20,13.70
2007,08,23,03,21,13.70
2007,08,23,03,22,13.70
2007,08,23,03,23,13.70
2007,08,23,03,24,13.70
2007,08,23,03,25,13.70
2007,08,23,03,26,13.70
2007,08,23,03,27,13.70
2007,08,23,03,28,13.80
2007,08,23,03,29,13.80
2007,08,23,03,30,13.80
2007,08,23,03,31,13.80
2007,08,23,03,32,13.80
2007,08,23,03,33,13.80
2007,08,23,03,34,13.80
2007,08,23,03,35,13.70
2007,08,23,03,36,13.70
2007,08,23,03,37,13.70
2007,08,23,03,38,13.70
2007,08,23,03,39,13.60
2007,08,23,03,40,13.60
2007,08,23,03,41,13.60
2007,08,23,03,42,13.60
2007,08,23,03,43,13.60
2007,08,23,03,44,13.60
2007,08,23,03,45,13.50
2007,08,23,03,46,13.50
2007,08,23,03,47,13.50
2007,08,23,03,48,13.50
2007,08,23,03,49,13.50
2007,08,23,03,50,13.50
2007,08,23,03,51,13.50
2007,08,23,03,52,13.40
2007,08,23,03,53,13.40
2007,08,23,03,54,13.30
2007,08,23,03,55,13.30
2007,08,23,03,56,13.30
2007,08,23,03,57,13.30
2007,08,23,03,58,13.30
2007,08,23,03,59,13.30
2007,08,23,04,00,13.20
2007,08,23,04,01,13.20
2007,08,23,04,02,13.20
2007,08,23,04,03,13.20
2007,08,23,04,04,13.20
2007,08,23,04,05,13.20
2007,08,23,04,06,13.20
2007,08,23,04,07,13.10
2007,08,23,04,08,13.10
2007,08,23,04,09,13.10
2007,08,23,04,10,13.10
2007,08,23,04,11,13.10
2007,08,23,04,12,13.10
2007,08,23,04,13,13.10
2007,08,23,04,14,13.10
2007,08,23,04,15,13.10
2007,08,23,04,16,13.10
2007,08,23,04,17,13.00
2007,08,23,04,18,13.00
2007,08,23,04,19,13.00
2007,08,23,04,20,13.00
2007,08,23,04,21,13.00
2007,08,23,04,22,13.00
2007,08,23,04,23,13.00
2007,08,23,04,24,12.90
2007,08,23,04,25,12.90
2007,08,23,04,26,12.90
2007,08,23,04,27,12.90
2007,08,23,04,28,12.90
2007,08,23,04,29,12.90
2007,08,23,04,30,12.90
2007,08,23,04,31,12.90
2007,08,23,04,32,12.90
2007,08,23,04,33,12.80
2007,08,23,04,34,12.80
2007,08,23,04,35,12.80
2007,08,23,04,36,12.80
2007,08,23,04,37,12.80
2007,08,23,04,38,12.80
2007,08,23,04,39,12.80
2007,08,23,04,40,12.80
2007,08,23,04,41,12.80
2007,08,23,04,42,12.80
2007,08,23,04,43,12.80
2007,08,23,04,44,12.80
2007,08,23,04,45,12.80
2007,08,23,04,46,12.80
2007,08,23,04,47,12.80
2007,08,23,04,48,12.80
2007,08,23,04,49,12.80
2007,08,23,04,50,12.80
2007,08,23,04,51,12.80
2007,08,23,04,52,12.80
2007,08,23,04,53,12.80
2007,08,23,04,54,12.80
2007,08,23,04,55,12.80
2007,08,23,04,56,12.80
2007,08,23,04,57,12.80
2007,08,23,04,58,12.80
2007,08,23,04,59,12.70
2007,08,23,05,00,12.70
2007,08,23,05,01,12.70
2007,08,23,05,02,12.70
2007,08,23,05,03,12.60
2007,08,23,05,04,12.60
2007,08,23,05,05,12.60
2007,08,23,05,06,12.50
2007,08,23,05,07,12.50
2007,08,23,05,08,12.50
2007,08,23,05,09,12.50
2007,08,23,05,10,12.40
2007,08,23,05,11,12.40
2007,08,23,05,12,12.40
2007,08,23,05,13,12.40
2007,08,23,05,14,12.40
2007,08,23,05,15,12.40
2007,08,23,05,16,12.40
2007,08,23,05,17,12.50
2007,08,23,05,18,12.50
2007,08,23,05,19,12.50
2007,08,23,05,20,12.50
2007,08,23,05,21,12.50
2007,08,23,05,22,12.50
2007,08,23,05,23,12.50
2007,08,23,05,24,12.50
2007,08,23,05,25,12.60
2007,08,23,05,26,12.60
2007,08,23,05,27,12.50
2007,08,23,05,28,12.50
2007,08,23,05,29,12.50
2007,08,23,05,30,12.50
2007,08,23,05,31,12.40
2007,08,23,05,32,12.40
2007,08,23,05,33,12.40
2007,08,23,05,34,12.40
2007,08,23,05,35,12.30
2007,08,23,05,36,12.30
2007,08,23,05,37,12.30
2007,08,23,05,38,12.30
2007,08,23,05,39,12.30
2007,08,23,05,40,12.30
2007,08,23,05,41,12.30
2007,08,23,05,42,12.30
2007,08,23,05,43,12.30
2007,08,23,05,44,12.30
2007,08,23,05,45,12.30
2007,08,23,05,46,12.30
2007,08,23,05,47,12.30
2007,08,23,05,48,12.30
2007,08,23,05,49,12.30
2007,08,23,05,50,12.30
2007,08,23,05,51,12.30
2007,08,23,05,52,12.30
2007,08,23,05,53,12.20
2007,08,23,05,54,12.20
2007,08,23,05,55,12.20
2007,08,23,05,56,12.20
2007,08,23,05,57,12.20
2007,08,23,05,58,12.20
2007,08,23,05,59,12.10
2007,08,23,06,00,12.10
2007,08,23,06,01,12.10
2007,08,23,06,02,12.10
2007,08,23,06,03,12.00
2007,08,23,06,04,12.00
2007,08,23,06,05,12.00
2007,08,23,06,06,11.90
2007,08,23,06,07,11.90
2007,08,23,06,08,11.90
2007,08,23,06,09,12.00
2007,08,23,06,10,12.10
2007,08,23,06,11,12.10
2007,08,23,06,12,12.10
2007,08,23,06,13,12.10
2007,08,23,06,14,12.10
2007,08,23,06,15,12.10
2007,08,23,06,16,12.10
2007,08,23,06,17,12.10
2007,08,23,06,18,12.10
2007,08,23,06,19,12.10
2007,08,23,06,20,12.10
2007,08,23,06,21,12.10
2007,08,23,06,22,12.10
2007,08,23,06,23,12.10
2007,08,23,06,24,12.20
2007,08,23,06,25,12.20
2007,08,23,06,26,12.20
2007,08,23,06,27,12.20
2007,08,23,06,28,12.20
2007,08,23,06,29,12.20
2007,08,23,06,30,12.20
2007,08,23,06,31,12.20
2007,08,23,06,32,12.20
2007,08,23,06,33,12.10
2007,08,23,06,34,12.10
2007,08,23,06,35,12.10
2007,08,23,06,36,12.10
2007,08,23,06,37,12.10
2007,08,23,06,38,12.10
2007,08,23,06,39,12.10
2007,08,23,06,40,12.10
2007,08,23,06,41,12.10
2007,08,23,06,42,12.10
2007,08,23,06,43,12.10
2007,08,23,06,44,12.10
2007,08,23,06,45,12.10
2007,08,23,06,46,12.10
2007,08,23,06,47,12.10
2007,08,23,06,48,12.10
2007,08,23,06,49,12.10
2007,08,23,06,50,12.10
2007,08,23,06,51,12.10
2007,08,23,06,52,12.10
2007,08,23,06,53,12.20
2007,08,23,06,54,12.20
2007,08,23,06,55,12.20
2007,08,23,06,56,12.20
2007,08,23,06,57,12.20
2007,08,23,06,58,12.20
2007,08,23,06,59,12.30
2007,08,23,07,00,12.30
2007,08,23,07,01,12.30
2007,08,23,07,02,12.30
2007,08,23,07,03,12.30
2007,08,23,07,04,12.30
2007,08,23,07,05,12.40
2007,08,23,07,06,12.50
2007,08,23,07,07,12.50
2007,08,23,07,08,12.60
2007,08,23,07,09,12.70
2007,08,23,07,10,12.80
2007,08,23,07,11,12.80
2007,08,23,07,12,12.80
2007,08,23,07,13,12.80
2007,08,23,07,14,12.80
2007,08,23,07,15,12.90
2007,08,23,07,16,12.90
2007,08,23,07,17,12.90
2007,08,23,07,18,12.90
2007,08,23,07,19,12.90
2007,08,23,07,20,13.00
2007,08,23,07,21,13.00
2007,08,23,07,22,13.00
2007,08,23,07,23,13.10
2007,08,23,07,24,13.10
2007,08,23,07,25,13.20
2007,08,23,07,26,13.20
2007,08,23,07,27,13.20
2007,08,23,07,28,13.30
2007,08,23,07,29,13.30
2007,08,23,07,30,13.30
2007,08,23,07,31,13.40
2007,08,23,07,32,13.40
2007,08,23,07,33,13.40
2007,08,23,07,34,13.50
2007,08,23,07,35,13.60
2007,08,23,07,36,13.60
2007,08,23,07,37,13.60
2007,08,23,07,38,13.70
2007,08,23,07,39,13.70
2007,08,23,07,40,13.80
2007,08,23,07,41,13.80
2007,08,23,07,42,13.80
2007,08,23,07,43,13.90
2007,08,23,07,44,13.90
2007,08,23,07,45,14.00
2007,08,23,07,46,14.00
2007,08,23,07,47,14.10
2007,08,23,07,48,14.10
2007,08,23,07,49,14.20
2007,08,23,07,50,14.20
2007,08,23,07,51,14.20
2007,08,23,07,52,14.20
2007,08,23,07,53,14.30
2007,08,23,07,54,14.30
2007,08,23,07,55,14.40
2007,08,23,07,56,14.40
2007,08,23,07,57,14.50
2007,08,23,07,58,14.60
2007,08,23,07,59,14.60
2007,08,23,08,00,14.70
2007,08,23,08,01,14.70
2007,08,23,08,02,14.80
2007,08,23,08,03,14.80
2007,08,23,08,04,14.90
2007,08,23,08,05,15.00
2007,08,23,08,06,15.00
2007,08,23,08,07,15.00
2007,08,23,08,08,15.00
2007,08,23,08,09,15.10
2007,08,23,08,10,15.20
2007,08,23,08,11,15.20
2007,08,23,08,12,15.30
2007,08,23,08,13,15.40
2007,08,23,08,14,15.40
2007,08,23,08,15,15.50
2007,08,23,08,16,15.50
2007,08,23,08,17,15.60
2007,08,23,08,18,15.60
2007,08,23,08,19,15.70
2007,08,23,08,20,15.70
2007,08,23,08,21,15.70
2007,08,23,08,22,15.80
2007,08,23,08,23,15.80
2007,08,23,08,24,15.90
2007,08,23,08,25,15.90
2007,08,23,08,26,16.00
2007,08,23,08,27,16.00
2007,08,23,08,28,16.10
2007,08,23,08,29,16.20
2007,08,23,08,30,16.20
2007,08,23,08,31,16.30
2007,08,23,08,32,16.30
2007,08,23,08,33,16.40
2007,08,23,08,34,16.50
2007,08,23,08,35,16.60
2007,08,23,08,36,16.70
2007,08,23,08,37,16.80
2007,08,23,08,38,16.90
2007,08,23,08,39,17.00
2007,08,23,08,40,17.10
2007,08,23,08,41,17.30
2007,08,23,08,42,17.40
2007,08,23,08,43,17.50
2007,08,23,08,44,17.70
2007,08,23,08,45,17.70
2007,08,23,08,46,17.80
2007,08,23,08,47,17.90
2007,08,23,08,48,18.00
2007,08,23,08,49,18.00
2007,08,23,08,50,18.10
2007,08,23,08,51,18.10
2007,08,23,08,52,18.10
2007,08,23,08,53,18.10
2007,08,23,08,54,18.10
2007,08,23,08,55,18.00
2007,08,23,08,56,17.90
2007,08,23,08,57,17.80
2007,08,23,08,58,17.80
2007,08,23,08,59,17.80
2007,08,23,09,00,17.80
2007,08,23,09,01,17.80
2007,08,23,09,02,17.80
2007,08,23,09,03,17.80
2007,08,23,09,04,17.80
2007,08,23,09,05,17.80
2007,08,23,09,06,17.80
2007,08,23,09,07,17.70
2007,08,23,09,08,17.70
2007,08,23,09,09,17.70
2007,08,23,09,10,17.70
2007,08,23,09,11,17.60
2007,08,23,09,12,17.60
2007,08,23,09,13,17.60
2007,08,23,09,14,17.70
2007,08,23,09,15,17.70
2007,08,23,09,16,17.70
2007,08,23,09,17,17.70
2007,08,23,09,18,17.80
2007,08,23,09,19,17.80
2007,08,23,09,20,17.90
2007,08,23,09,21,17.90
2007,08,23,09,22,18.00
2007,08,23,09,23,18.00
2007,08,23,09,24,18.00
2007,08,23,09,25,18.20
2007,08,23,09,26,18.20
2007,08,23,09,27,18.30
2007,08,23,09,28,18.30
2007,08,23,09,29,18.30
2007,08,23,09,30,18.20
2007,08,23,09,31,18.20
2007,08,23,09,32,18.10
2007,08,23,09,33,18.10
2007,08,23,09,34,18.00
2007,08,23,09,35,18.00
2007,08,23,09,36,17.90
2007,08,23,09,37,17.90
2007,08,23,09,38,17.90
2007,08,23,09,39,17.80
2007,08,23,09,40,17.80
2007,08,23,09,41,17.80
2007,08,23,09,42,17.70
2007,08,23,09,43,17.70
2007,08,23,09,44,17.70
2007,08,23,09,45,17.70
2007,08,23,09,46,17.70
2007,08,23,09,47,17.70
2007,08,23,09,48,17.70
2007,08,23,09,49,17.70
2007,08,23,09,50,17.70
2007,08,23,09,51,17.70
2007,08,23,09,52,17.70
2007,08,23,09,53,17.80
2007,08,23,09,54,17.90
2007,08,23,09,55,17.90
2007,08,23,09,56,17.90
2007,08,23,09,57,18.00
2007,08,23,09,58,17.90
2007,08,23,09,59,18.00
2007,08,23,10,00,18.00
2007,08,23,10,01,18.00
2007,08,23,10,02,18.00
2007,08,23,10,03,18.10
2007,08,23,10,04,18.10
2007,08,23,10,05,18.20
2007,08,23,10,06,18.30
2007,08,23,10,07,18.30
2007,08,23,10,08,18.30
2007,08,23,10,09,18.30
2007,08,23,10,10,18.30
2007,08,23,10,11,18.30
2007,08,23,10,12,18.40
2007,08,23,10,13,18.40
2007,08,23,10,14,18.40
2007,08,23,10,15,18.40
2007,08,23,10,16,18.40
2007,08,23,10,17,18.30
2007,08,23,10,18,18.30
2007,08,23,10,19,18.40
2007,08,23,10,20,18.40
2007,08,23,10,21,18.40
2007,08,23,10,22,18.40
2007,08,23,10,23,18.30
2007,08,23,10,24,18.30
2007,08,23,10,25,18.30
2007,08,23,10,26,18.30
2007,08,23,10,27,18.30
2007,08,23,10,28,18.30
2007,08,23,10,29,18.30
2007,08,23,10,30,18.40
2007,08,23,10,31,18.60
2007,08,23,10,32,18.70
2007,08,23,10,33,18.90
2007,08,23,10,34,19.10
2007,08,23,10,35,19.20
2007,08,23,10,36,19.30
2007,08,23,10,37,19.30
2007,08,23,10,38,19.40
2007,08,23,10,39,19.40
2007,08,23,10,40,19.50
2007,08,23,10,41,19.60
2007,08,23,10,42,19.60
2007,08,23,10,43,19.70
2007,08,23,10,44,19.70
2007,08,23,10,45,19.70
2007,08,23,10,46,19.70
2007,08,23,10,47,19.80
2007,08,23,10,48,19.90
2007,08,23,10,49,20.00
2007,08,23,10,50,20.00
2007,08,23,10,51,20.10
2007,08,23,10,52,20.20
2007,08,23,10,53,20.30
2007,08,23,10,54,20.40
2007,08,23,10,55,20.40
2007,08,23,10,56,20.50
2007,08,23,10,57,20.60
2007,08,23,10,58,20.60
2007,08,23,10,59,20.50
2007,08,23,11,00,20.50
2007,08,23,11,01,20.60
2007,08,23,11,02,20.50
2007,08,23,11,03,20.40
2007,08,23,11,04,20.30
2007,08,23,11,05,20.30
2007,08,23,11,06,20.30
2007,08,23,11,07,20.30
2007,08,23,11,08,20.30
2007,08,23,11,09,20.30
2007,08,23,11,10,20.30
2007,08,23,11,11,20.30
2007,08,23,11,12,20.30
2007,08,23,11,13,20.40
2007,08,23,11,14,20.40
2007,08,23,11,15,20.50
2007,08,23,11,16,20.50
2007,08,23,11,17,20.60
2007,08,23,11,18,20.60
2007,08,23,11,19,20.70
2007,08,23,11,20,20.80
2007,08,23,11,21,20.90
2007,08,23,11,22,20.90
2007,08,23,11,23,20.80
2007,08,23,11,24,20.70
2007,08,23,11,25,20.60
2007,08,23,11,26,20.60
2007,08,23,11,27,20.50
2007,08,23,11,28,20.40
2007,08,23,11,29,20.40
2007,08,23,11,30,20.50
2007,08,23,11,31,20.60
2007,08,23,11,32,20.60
2007,08,23,11,33,20.50
2007,08,23,11,34,20.30
2007,08,23,11,35,20.20
2007,08,23,11,36,20.00
2007,08,23,11,37,19.80
2007,08,23,11,38,19.70
2007,08,23,11,39,19.60
2007,08,23,11,40,19.50
2007,08,23,11,41,19.50
2007,08,23,11,42,19.40
2007,08,23,11,43,19.40
2007,08,23,11,44,19.30
2007,08,23,11,45,19.30
2007,08,23,11,46,19.30
2007,08,23,11,47,19.40
2007,08,23,11,48,19.40
2007,08,23,11,49,19.40
2007,08,23,11,50,19.50
2007,08,23,11,51,19.60
2007,08,23,11,52,19.70
2007,08,23,11,53,19.80
2007,08,23,11,54,19.80
2007,08,23,11,55,19.90
2007,08,23,11,56,20.00
2007,08,23,11,57,20.10
2007,08,23,11,58,20.10
2007,08,23,11,59,20.20
2007,08,23,12,00,20.20
2007,08,23,12,01,20.20
2007,08,23,12,02,20.20
2007,08,23,12,03,20.20
2007,08,23,12,04,20.30
2007,08,23,12,05,20.30
2007,08,23,12,06,20.30
2007,08,23,12,07,20.30
2007,08,23,12,08,20.20
2007,08,23,12,09,20.10
2007,08,23,12,10,20.00
2007,08,23,12,11,20.00
2007,08,23,12,12,19.80
2007,08,23,12,13,19.80
2007,08,23,12,14,19.80
2007,08,23,12,15,19.80
2007,08,23,12,16,19.80
2007,08,23,12,17,19.80
2007,08,23,12,18,19.80
2007,08,23,12,19,19.80
2007,08,23,12,20,19.80
2007,08,23,12,21,19.80
2007,08,23,12,22,19.70
2007,08,23,12,23,19.70
2007,08,23,12,24,19.80
2007,08,23,12,25,19.80
2007,08,23,12,26,19.80
2007,08,23,12,27,19.90
2007,08,23,12,28,19.90
2007,08,23,12,29,20.00
2007,08,23,12,30,20.00
2007,08,23,12,31,20.00
2007,08,23,12,32,20.10
2007,08,23,12,33,20.10
2007,08,23,12,34,20.10
2007,08,23,12,35,20.10
2007,08,23,12,36,20.20
2007,08,23,12,37,20.20
2007,08,23,12,38,20.20
2007,08,23,12,39,20.30
2007,08,23,12,40,20.30
2007,08,23,12,41,20.40
2007,08,23,12,42,20.40
2007,08,23,12,43,20.40
2007,08,23,12,44,20.40
2007,08,23,12,45,20.50
2007,08,23,12,46,20.60
2007,08,23,12,47,20.60
2007,08,23,12,48,20.60
2007,08,23,12,49,20.60
2007,08,23,12,50,20.70
2007,08,23,12,51,20.70
2007,08,23,12,52,20.60
2007,08,23,12,53,20.70
2007,08,23,12,54,20.70
2007,08,23,12,55,20.80
2007,08,23,12,56,20.90
2007,08,23,12,57,20.90
2007,08,23,12,58,20.90
2007,08,23,12,59,21.00
2007,08,23,13,00,21.00
2007,08,23,13,01,21.00
2007,08,23,13,02,21.00
2007,08,23,13,03,21.00
2007,08,23,13,04,21.00
2007,08,23,13,05,21.10
2007,08,23,13,06,21.10
2007,08,23,13,07,21.20
2007,08,23,13,08,21.30
2007,08,23,13,09,21.40
2007,08,23,13,10,21.50
2007,08,23,13,11,21.50
2007,08,23,13,12,21.40
2007,08,23,13,13,21.40
2007,08,23,13,14,21.40
2007,08,23,13,15,21.50
2007,08,23,13,16,21.60
2007,08,23,13,17,21.70
2007,08,23,13,18,21.70
2007,08,23,13,19,21.80
2007,08,23,13,20,21.80
2007,08,23,13,21,21.80
2007,08,23,13,22,21.80
2007,08,23,13,23,21.70
2007,08,23,13,24,21.70
2007,08,23,13,25,21.80
2007,08,23,13,26,21.80
2007,08,23,13,27,21.80
2007,08,23,13,28,21.80
2007,08,23,13,29,21.80
2007,08,23,13,30,21.80
2007,08,23,13,31,21.90
2007,08,23,13,32,21.90
2007,08,23,13,33,21.90
2007,08,23,13,34,22.00
2007,08,23,13,35,22.10
2007,08,23,13,36,22.10
2007,08,23,13,37,22.10
2007,08,23,13,38,22.00
2007,08,23,13,39,22.00
2007,08,23,13,40,22.00
2007,08,23,13,41,22.10
2007,08,23,13,42,22.10
2007,08,23,13,43,22.10
2007,08,23,13,44,22.20
2007,08,23,13,45,22.20
2007,08,23,13,46,22.20
2007,08,23,13,47,22.20
2007,08,23,13,48,22.20
2007,08,23,13,49,22.20
2007,08,23,13,50,22.20
2007,08,23,13,51,22.30
2007,08,23,13,52,22.20
2007,08,23,13,53,22.10
2007,08,23,13,54,22.10
2007,08,23,13,55,22.10
2007,08,23,13,56,22.10
2007,08,23,13,57,22.10
2007,08,23,13,58,22.10
2007,08,23,13,59,22.10
2007,08,23,14,00,22.10
2007,08,23,14,01,21.90
2007,08,23,14,02,21.90
2007,08,23,14,03,22.00
2007,08,23,14,04,22.00
2007,08,23,14,05,22.00
2007,08,23,14,06,22.00
2007,08,23,14,07,22.10
2007,08,23,14,08,22.30
2007,08,23,14,09,22.40
2007,08,23,14,10,22.50
2007,08,23,14,11,22.60
2007,08,23,14,12,22.70
2007,08,23,14,13,22.80
2007,08,23,14,14,22.80
2007,08,23,14,15,22.80
2007,08,23,14,16,22.80
2007,08,23,14,17,22.90
2007,08,23,14,18,22.90
2007,08,23,14,19,22.90
2007,08,23,14,20,23.00
2007,08,23,14,21,23.00
2007,08,23,14,22,23.10
2007,08,23,14,23,23.10
2007,08,23,14,24,23.10
2007,08,23,14,25,23.10
2007,08,23,14,26,23.20
2007,08,23,14,27,23.30
2007,08,23,14,28,23.30
2007,08,23,14,29,23.30
2007,08,23,14,30,23.30
2007,08,23,14,31,23.30
2007,08,23,14,32,23.30
2007,08,23,14,33,23.30
2007,08,23,14,34,23.30
2007,08,23,14,35,23.10
2007,08,23,14,36,22.90
2007,08,23,14,37,22.70
2007,08,23,14,38,22.50
2007,08,23,14,39,22.40
2007,08,23,14,40,22.40
2007,08,23,14,41,22.40
2007,08,23,14,42,22.50
2007,08,23,14,43,22.60
2007,08,23,14,44,22.60
2007,08,23,14,45,22.60
2007,08,23,14,46,22.60
2007,08,23,14,47,22.60
2007,08,23,14,48,22.70
2007,08,23,14,49,22.70
2007,08,23,14,50,22.70
2007,08,23,14,51,22.70
2007,08,23,14,52,22.70
2007,08,23,14,53,22.70
2007,08,23,14,54,22.70
2007,08,23,14,55,22.70
2007,08,23,14,56,22.70
2007,08,23,14,57,22.70
2007,08,23,14,58,22.70
2007,08,23,14,59,22.70
2007,08,23,15,00,22.70
2007,08,23,15,01,22.70
2007,08,23,15,02,22.80
2007,08,23,15,03,22.80
2007,08,23,15,04,22.80
2007,08,23,15,05,22.70
2007,08,23,15,06,22.70
2007,08,23,15,07,22.70
2007,08,23,15,08,22.60
2007,08,23,15,09,22.60
2007,08,23,15,10,22.50
2007,08,23,15,11,22.50
2007,08,23,15,12,22.50
2007,08,23,15,13,22.60
2007,08,23,15,14,22.50
2007,08,23,15,15,22.50
2007,08,23,15,16,22.50
2007,08,23,15,17,22.50
2007,08,23,15,18,22.60
2007,08,23,15,19,22.70
2007,08,23,15,20,22.90
2007,08,23,15,21,23.00
2007,08,23,15,22,23.20
2007,08,23,15,23,23.30
2007,08,23,15,24,23.50
2007,08,23,15,25,23.50
2007,08,23,15,26,23.60
2007,08,23,15,27,23.60
2007,08,23,15,28,23.70
2007,08,23,15,29,23.70
2007,08,23,15,30,23.70
2007,08,23,15,31,23.80
2007,08,23,15,32,23.70
2007,08,23,15,33,23.70
2007,08,23,15,34,23.70
2007,08,23,15,35,23.70
2007,08,23,15,36,23.80
2007,08,23,15,37,23.90
2007,08,23,15,38,23.90
2007,08,23,15,39,23.90
2007,08,23,15,40,23.90
2007,08,23,15,41,23.70
2007,08,23,15,42,23.50
2007,08,23,15,43,23.40
2007,08,23,15,44,23.20
2007,08,23,15,45,23.00
2007,08,23,15,46,22.70
2007,08,23,15,47,22.30
2007,08,23,15,48,22.10
2007,08,23,15,49,22.00
2007,08,23,15,50,21.90
2007,08,23,15,51,21.90
2007,08,23,15,52,21.90
2007,08,23,15,53,21.80
2007,08,23,15,54,21.80
2007,08,23,15,55,21.80
2007,08,23,15,56,21.70
2007,08,23,15,57,21.80
2007,08,23,15,58,21.80
2007,08,23,15,59,21.80
2007,08,23,16,00,21.90
2007,08,23,16,01,21.90
2007,08,23,16,02,21.90
2007,08,23,16,03,21.90
2007,08,23,16,04,21.80
2007,08,23,16,05,21.90
2007,08,23,16,06,21.90
2007,08,23,16,07,22.00
2007,08,23,16,08,22.00
2007,08,23,16,09,22.10
2007,08,23,16,10,22.10
2007,08,23,16,11,22.20
2007,08,23,16,12,22.10
2007,08,23,16,13,22.00
2007,08,23,16,14,21.90
2007,08,23,16,15,21.80
2007,08,23,16,16,21.80
2007,08,23,16,17,21.80
2007,08,23,16,18,21.80
2007,08,23,16,19,21.90
2007,08,23,16,20,22.00
2007,08,23,16,21,22.10
2007,08,23,16,22,22.20
2007,08,23,16,23,22.30
2007,08,23,16,24,22.40
2007,08,23,16,25,22.50
2007,08,23,16,26,22.60
2007,08,23,16,27,22.60
2007,08,23,16,28,22.60
2007,08,23,16,29,22.50
2007,08,23,16,30,22.50
2007,08,23,16,31,22.40
2007,08,23,16,32,22.40
2007,08,23,16,33,22.30
2007,08,23,16,34,22.30
2007,08,23,16,35,22.20
2007,08,23,16,36,22.20
2007,08,23,16,37,22.30
2007,08,23,16,38,22.30
2007,08,23,16,39,22.40
2007,08,23,16,40,22.40
2007,08,23,16,41,22.40
2007,08,23,16,42,22.40
2007,08,23,16,43,22.40
2007,08,23,16,44,22.40
2007,08,23,16,45,22.30
2007,08,23,16,46,22.10
2007,08,23,16,47,21.90
2007,08,23,16,48,21.80
2007,08,23,16,49,21.60
2007,08,23,16,50,21.40
2007,08,23,16,51,21.10
2007,08,23,16,52,20.90
2007,08,23,16,53,20.80
2007,08,23,16,54,20.60
2007,08,23,16,55,20.50
2007,08,23,16,56,20.50
2007,08,23,16,57,20.40
2007,08,23,16,58,20.40
2007,08,23,16,59,20.30
2007,08,23,17,00,20.30
2007,08,23,17,01,20.40
2007,08,23,17,02,20.70
2007,08,23,17,03,20.80
2007,08,23,17,04,21.00
2007,08,23,17,05,21.10
2007,08,23,17,06,21.30
2007,08,23,17,07,21.30
2007,08,23,17,08,21.40
2007,08,23,17,09,21.50
2007,08,23,17,10,21.60
2007,08,23,17,11,21.70
2007,08,23,17,12,21.70
2007,08,23,17,13,21.80
2007,08,23,17,14,21.80
2007,08,23,17,15,21.80
2007,08,23,17,16,21.80
2007,08,23,17,17,21.80
2007,08,23,17,18,21.70
2007,08,23,17,19,21.50